Regional Weather Roundup
Issued by NWS

Home | Current Version | Previous Version | Graphics & Text | Print | Product List | Glossary On
Versions: 1 2 3 4 5 6 7 8 9 10 11 12 13 14 15 16 17 18 19 20 21 22 23 24 25 26 27 28 29 30 31 32 33 34 35 36 37 38 39 40 41 42 43 44 45 46 47 48 49 50
000
ASUS43 KFSD 250610
RWRSD

WEATHER ROUNDUP FOR SOUTH DAKOTA
NATIONAL WEATHER SERVICE SIOUX FALLS SD
1200 AM CST SAT NOV 25 2017

NOTE: "FAIR" INDICATES FEW OR NO CLOUDS BELOW 12,000 FEET WITH NO
SIGNIFICANT WEATHER AND/OR OBSTRUCTIONS TO VISIBILITY.


SDZ001>005-009-010-012>017-250700-
NORTHWEST AND NORTH CENTRAL SOUTH DAKOTA

CITY           SKY/WX    TMP DP  RH WIND       PRES   REMARKS
BUFFALO          N/A     31  25  78 W7        29.92R WCI  24
FAITH            N/A     34  28  79 W9        29.98S WCI  27
MOBRIDGE       CLEAR     34  28  79 NW6       29.92R WCI  29
$$

SDZ012>016-024>037-041>051-057-063-072>074-250700-
SOUTHWEST AND SOUTH CENTRAL SOUTH DAKOTA

CITY           SKY/WX    TMP DP  RH WIND       PRES   REMARKS
RAPID CTY ARPT CLEAR     33  21  61 NW9       30.02R WCI  25
PIERRE         CLEAR     35  31  85 W10       29.97R WCI  27
CUSTER         CLEAR     29  15  56 NW3       30.03R
ELLSWORTH AFB  CLEAR     28  21  73 W7        30.01R WCI  21
PHILIP         CLEAR     29  27  92 W7        30.01R WCI  22
PINE RIDGE     CLEAR     20  17  88 CALM      30.05R
SPEARFISH      FAIR      30  23  74 SW3       30.02R
WINNER         FAIR      37  30  75 W8        30.00R
$$

SDZ004>011-016>023-039-040-250700-
NORTHEAST SOUTH DAKOTA

CITY           SKY/WX    TMP DP  RH WIND       PRES   REMARKS
ABERDEEN       CLEAR     33  28  81 NW7       29.91R WCI  27
WATERTOWN      CLEAR     36  31  82 W9        29.88R
BROOKINGS      PTCLDY    37  31  78 NW10      29.90R
SISSETON         N/A     37  30  75 NW8       29.86R
$$

SDZ017-020-022-023-036>040-048>070-250700-
SOUTHEAST SOUTH DAKOTA

CITY           SKY/WX    TMP DP  RH WIND       PRES   REMARKS
SIOUX FALLS    PTCLDY    37  31  78 W7        29.92R
HURON          CLEAR     30  28  92 W8        29.94R WCI  22
CHAMBERLAIN    CLEAR     39  35  84 W7        29.99R
MITCHELL       CLEAR     38  32  79 W10       29.97R
YANKTON        CLEAR     40  33  76 W9        29.98R
$$

ABBREVIATIONS USED IN REMARKS
   TC - TEMPERATURE IN CELSIUS
  WCI - WIND CHILL INDEX
   HX - HEAT INDEX
  VSB - VISIBILITY





USA.gov is the U.S. government's official web portal to all federal, state and local government web resources and services.